Weather History for Clemson, SC

Change the Weather History Date:

Wednesday, November 21, 2012

  Actual Average Record
Temperature  
Mean Temperature 56 °F -  
Max Temperature 69 °F 61 °F 78 °F (1942)
Min Temperature 44 °F 38 °F 13 °F (1937)
Degree Days  
Heating Degree Days 8    
Growing Degree Days 6 (Base 50)    
Moisture  
Dew Point 43 °F    
Average Humidity 74    
Maximum Humidity 93    
Minimum Humidity 35    
Precipitation  
Precipitation 0.00 in - - ()
Sea Level Pressure  
Sea Level Pressure 30.13 in    
Wind  
Wind Speed 2 mph (North)    
Max Wind Speed 6 mph    
Max Gust Speed -    
Visibility 6 miles    
Events Fog    
Averages and records for this station are not official NWS values.
T = Trace of Precipitation, MM = Missing Value Source: NWS Daily Summary

Daily Weather History Graph

Daily Weather History Graph

Search for Another Location

Airport:

Trip Planner

Search our weather history database for the weather conditions in past years. The results will help you decide how hot, cold, wet, or windy it might be!

Date:

Astronomy

Nov. 21, 2012 Rise Set
Actual Time 7:11 AM EST 5:23 PM EST
Civil Twilight 6:44 AM EST 5:50 PM EST
Nautical Twilight 6:13 AM EST 6:21 PM EST
Astronomical Twilight 5:43 AM EST 6:51 PM EST
Moon 1:25 PM EST (11/21) 12:44 AM EST (11/21)
Length of Visible Light 11h 05m
Length of Day
10h 11m
First Quarter, 61% of the Moon is Illuminated
Nov 21
First Quarter
Nov 28
Full
Dec 6
Last Quarter
Dec 13
New
Dec 20
First Quarter

Hourly Weather History & Observations

Time (EST) Temp. Windchill Dew Point Humidity Pressure Visibility Wind Dir Wind Speed Gust Speed Precip Events Conditions
12:54 AM 51.1 °F - 46.9 °F 86% 30.09 in 10.0 mi Calm Calm - N/A   Clear
1:27 AM 46.4 °F 45.2 °F 44.6 °F 93% 30.10 in 1.8 mi North 3.5 mph - N/A   Clear
1:38 AM 46.4 °F 45.2 °F 42.8 °F 87% 30.10 in 0.8 mi North 3.5 mph - N/A   Clear
1:47 AM 46.4 °F 45.2 °F 42.8 °F 87% 30.09 in 2.0 mi NNW 3.5 mph - N/A   Clear
1:54 AM 46.9 °F - 44.1 °F 90% 30.09 in 2.5 mi Calm Calm - N/A   Clear
1:56 AM 46.4 °F 45.2 °F 44.6 °F 93% 30.10 in 1.8 mi East 3.5 mph - N/A   Partly Cloudy
1:59 AM 46.4 °F 45.2 °F 42.8 °F 87% 30.10 in 0.8 mi East 3.5 mph - N/A   Mist
2:11 AM 44.6 °F - 42.8 °F 93% 30.10 in 1.2 mi Calm Calm - N/A   Scattered Clouds
2:15 AM 44.6 °F - 42.8 °F 93% 30.10 in 3.0 mi Calm Calm - N/A   Scattered Clouds
2:54 AM 48.0 °F - 44.1 °F 86% 30.09 in 10.0 mi Calm Calm - N/A   Clear
3:54 AM 45.0 °F - 42.1 °F 90% 30.09 in 3.0 mi Calm Calm - N/A   Partly Cloudy
4:54 AM 48.0 °F - 45.0 °F 89% 30.10 in 10.0 mi Calm Calm - N/A   Clear
5:35 AM 46.4 °F - 42.8 °F 87% 30.12 in 2.5 mi Calm Calm - N/A   Partly Cloudy
5:38 AM 46.4 °F - 42.8 °F 87% 30.12 in 1.0 mi Calm Calm - N/A   Mist
5:43 AM 46.4 °F - 42.8 °F 87% 30.12 in 0.2 mi Calm Calm - N/A Fog Fog
5:54 AM 46.9 °F - 44.1 °F 90% 30.11 in 0.2 mi Calm Calm - N/A Fog Fog
6:12 AM 44.6 °F - 42.8 °F 93% 30.12 in 0.5 mi Calm Calm - N/A Fog Fog
6:52 AM 46.4 °F 43.5 °F 44.6 °F 93% 30.13 in 2.5 mi NNW 5.8 mph - N/A   Scattered Clouds
6:54 AM 46.9 °F - 44.1 °F 90% 30.13 in 4.0 mi NNW 5.8 mph - N/A   Scattered Clouds
7:35 AM 46.4 °F 43.5 °F 42.8 °F 87% 30.15 in 1.5 mi NNW 5.8 mph - N/A   Scattered Clouds
7:37 AM 46.4 °F 43.5 °F 42.8 °F 87% 30.15 in 0.8 mi NNW 5.8 mph - N/A   Mist
7:54 AM 48.0 °F - 45.0 °F 89% 30.14 in 3.0 mi NNW 5.8 mph - N/A   Partly Cloudy
8:54 AM 51.1 °F - 46.9 °F 86% 30.16 in 10.0 mi NNW 4.6 mph - N/A   Clear
9:54 AM 55.0 °F - 46.9 °F 74% 30.17 in 10.0 mi ENE 4.6 mph - N/A   Clear
10:54 AM 62.1 °F - 43.0 °F 50% 30.17 in 10.0 mi ENE 3.5 mph - N/A   Clear
11:54 AM 64.9 °F - 41.0 °F 42% 30.15 in 10.0 mi Calm Calm - N/A   Clear
12:54 PM 66.9 °F - 39.9 °F 37% 30.13 in 10.0 mi Variable 3.5 mph - N/A   Clear
1:54 PM 68.0 °F - 39.9 °F 36% 30.12 in 10.0 mi Calm Calm - N/A   Clear
2:54 PM 69.1 °F - 39.9 °F 35% 30.10 in 10.0 mi ENE 5.8 mph - N/A   Clear
3:54 PM 68.0 °F - 39.9 °F 36% 30.10 in 10.0 mi Calm Calm - N/A   Clear
4:54 PM 64.9 °F - 39.9 °F 40% 30.12 in 10.0 mi Calm Calm - N/A   Clear
5:54 PM 63.0 °F - 39.9 °F 43% 30.13 in 10.0 mi Calm Calm - N/A   Partly Cloudy
6:54 PM 60.1 °F - 41.0 °F 49% 30.15 in 10.0 mi Calm Calm - N/A   Clear
7:54 PM 59.0 °F - 42.1 °F 53% 30.16 in 10.0 mi Calm Calm - N/A   Clear
8:54 PM 54.0 °F - 41.0 °F 62% 30.17 in 10.0 mi NNE 3.5 mph - N/A   Clear
9:54 PM 55.0 °F - 39.0 °F 55% 30.17 in 10.0 mi North 4.6 mph - N/A   Clear
10:54 PM 53.1 °F - 39.9 °F 61% 30.17 in 10.0 mi Calm Calm - N/A   Clear
11:54 PM 53.1 °F - 44.1 °F 71% 30.17 in 10.0 mi Calm Calm - N/A   Clear